Flag for U.S.A. Weather past 2 weeks in Kodiak, Alaska, U.S.A.

Now
43 °F

Light rain. Fog.


Feels Like: 35 °F
Forecast: 40 / 43 °F
Wind: 18 mph from Northeast

Location: Kodiak Weather Reporting Station

Current Time: Mar 28, 2015 at 4:07:20 PM

Latest Report: Mar 28, 2015 at 2:53 PM


Visibility: 3 mi

Pressure: 29.21 "Hg

Humidity: 97%

Dew point: 42 °F

Location of KodiakLocation

Historic Weather in Kodiak — Graph

°F

Kodiak temperature yesterday

Maximum temperature yesterday: 43 °F (at 11:53 AM)
Minimum temperature yesterday: 39 °F (at 5:53 AM)
Average temperature yesterday: 41 °F

Past Weeks' High & Low Weather Summary

 TemperatureHumidityPressure
High46 °F (Mar 20, 3:53 PM)100% (Mar 17, 11:53 PM)29.93 "Hg (Mar 17, 11:53 PM)
Low16 °F (Mar 14, 8:53 AM)23% (Mar 14, 1:53 PM)29.04 "Hg (Mar 26, 5:53 AM)
Average39 °F83%29.56 "Hg
* Reported Mar 13 2:53 PM — Mar 28 2:53 PM, Kodiak, Weather by CustomWeather, © 2015

Note: Actual official high and low records may vary slightly from our data, if they occured in-between our weather recording intervals... More about our weather records

Advertising

Kodiak weather history for previous 24 hours

 ConditionsComfort  
Time TempWeatherWind HumidityBarometerVisibility
2:53 PM
Sat, Mar 28
43 °FLight rain. Fog.18 mph97%29.21 "Hg3 mi
1:53 PM43 °FLight rain. Fog.18 mph100%29.22 "Hg6 mi
12:53 PM43 °FLight rain. Fog.17 mph97%29.23 "Hg5 mi
11:53 AM43 °FLight rain. Fog.18 mph97%29.22 "Hg3 mi
10:53 AM42 °FLight rain. Fog.22 mph100%29.22 "Hg3 mi
9:53 AM42 °FLight rain. Fog.21 mph96%29.22 "Hg3 mi
8:53 AM42 °FLight rain. Fog.24 mph96%29.21 "Hg3 mi
7:53 AM42 °FLight rain. Fog.29 mph96%29.21 "Hg5 mi
6:53 AM42 °FLow clouds.24 mph96%29.22 "Hg10 mi
5:53 AM42 °FLow clouds.26 mph96%29.23 "Hg7 mi
4:53 AM41 °FLight rain. Fog.26 mph96%29.24 "Hg2 mi
3:53 AM41 °FLight rain. Fog.23 mph96%29.26 "Hg4 mi
2:53 AM40 °FLight rain. Fog.29 mph97%29.28 "Hg4 mi
1:53 AM41 °FLight rain. Fog.28 mph93%29.30 "Hg4 mi
12:53 AM41 °FLight rain. Overcast.26 mph93%29.31 "Hg9 mi
11:53 PM
Fri, Mar 27
41 °FLight rain. Mostly cloudy.26 mph86%29.33 "Hg8 mi
10:53 PM42 °FLight rain. Overcast.26 mph82%29.35 "Hg8 mi
9:53 PM42 °FMostly cloudy.23 mph79%29.36 "Hg10 mi
8:53 PM42 °FMostly cloudy.22 mph76%29.37 "Hg10 mi
7:53 PM42 °FMostly cloudy.22 mph76%29.39 "Hg9 mi
6:53 PM42 °FOvercast.24 mph76%29.40 "Hg9 mi
5:53 PM42 °FPartly sunny.20 mph76%29.41 "Hg10 mi
4:53 PM42 °FBroken clouds.22 mph76%29.43 "Hg10 mi
Weather by CustomWeather, © 2015

See weather overviewHow to use our weather pages